Weather in Bychiha

Belarus     55°40′35″N   29°58′49″E
temp.,
°C
wind,
m/s
gust,
m/s
humid.,
%
clouds,
%
prec.,
mm/h
press.,
hPa
HPBL,
m
22 january, sat
sat2200:00−7nnw3995100 0.2 998419
03:00−6n4995100 0.9 1000511
06:00−8n3995100 0.3 1003360
09:00−9nnw3996100 0.4 1006341
12:00−6nnw4994100 0.6 1007803
15:00−6n4887100 0.9 1010845
18:00−9n4992100 0.1 1013516
21:00−10n31094100 0.1 1016434
23 january, sun
sun2300:00−12n3897100 0.1 1018244
03:00−13n3998100 0.1 1020233
06:00−13nne31097100 0.0 1023251
09:00−15ne289881 0.1 1025161
12:00−11nne249380 0.0 1029155
15:00−8n2392100 0.0 1031208
18:00−14ne119970 0.0 10349
21:00−16ene119969 0.0 10369
24 january, mon
mon2400:00−17ssw119967 0.0 10389
03:00−17s219967 0.0 103912
06:00−18sw1110083 0.0 10399
09:00−18ssw1110078 0.0 103918
12:00−10ssw24925 0.0 1039131
15:00−8ssw35905 0.0 1037221
18:00−12s269750 0.0 103697
21:00−12ssw3109516 0.0 1035166
25 january, tue
tue2500:00−12ssw4119413 0.0 1033203
03:00−12ssw412915 0.0 1030240
06:00−12ssw41387100 0.0 1027254
09:00−11ssw41388100 0.0 1025278
12:00−7ssw41094100 0.3 1022282
15:00−5ssw3895100 0.8 1020321
18:00−4sw2797100 0.9 1019282
21:00−5w2698100 1.4 1019167
26 january, wed
wed2600:00−2nnw3896100 0.1 1019418
03:00−3nnw3895100 0.1 1020425
06:00−4n3994100 0.1 1020543
09:00−5nnw399596 0.3 1021438
12:00−5n4886100 0.1 1022620
15:00−5n38895 0.1 1022494
18:00−13nnw119970 0.0 102310
21:00−17n1110097 0.0 102310